This is the latest recevied weather packets stored in our database for station/object SQ7RAF-15. If no packets are shown the sender has not sent any weather packets the latest 10 day(s).
| Time | Temp. | Humidity | Pressure | Rain* | Wind** | Luminosity | Snow |
|---|---|---|---|---|---|---|---|
| 1778323240 | 10.56° C | 87% | 1020.9 hPa | 0 mm | - | 210 W/m² | - |
| 1778322920 | 10° C | 87% | 1020.8 hPa | 0 mm | - | 179 W/m² | - |
| 1778322632 | 10° C | 88% | 1020.9 hPa | 0 mm | - | 161 W/m² | - |
| 1778322344 | 10° C | 89% | 1020.9 hPa | 0 mm | - | 144 W/m² | - |
| 1778322024 | 9.44° C | 89% | 1021 hPa | 0 mm | - | 143 W/m² | - |
| 1778321736 | 9.44° C | 90% | 1021 hPa | 0 mm | - | 106 W/m² | - |
| 1778321448 | 9.44° C | 90% | 1021 hPa | 0 mm | - | 73 W/m² | - |
| 1778321143 | 9.44° C | 90% | 1021 hPa | 0 mm | - | 46 W/m² | - |
| 1778320824 | 9.44° C | 89% | 1021 hPa | 0 mm | - | 38 W/m² | - |
| 1778320536 | 10° C | 89% | 1021 hPa | 0 mm | - | 42 W/m² | - |
| 1778320248 | 10° C | 88% | 1020.9 hPa | 0 mm | - | 38 W/m² | - |
| 1778319944 | 10° C | 88% | 1020.9 hPa | 0 mm | - | 42 W/m² | - |
| 1778319624 | 10° C | 88% | 1020.9 hPa | 0 mm | - | 70 W/m² | - |
| 1778319336 | 10.56° C | 87% | 1020.8 hPa | 0 mm | - | 89 W/m² | - |
| 1778319048 | 10.56° C | 87% | 1020.9 hPa | 0 mm | - | 71 W/m² | - |
| 1778318728 | 10.56° C | 86% | 1020.8 hPa | 0 mm | - | 69 W/m² | - |
| 1778318440 | 10.56° C | 86% | 1020.7 hPa | 0 mm | - | 110 W/m² | - |
| 1778318136 | 10.56° C | 85% | 1020.7 hPa | 0 mm | - | 86 W/m² | - |
| 1778317848 | 10.56° C | 86% | 1020.7 hPa | 0 mm | - | 151 W/m² | - |
| 1778317528 | 10.56° C | 86% | 1020.8 hPa | 0 mm | - | 157 W/m² | - |
| 1778317240 | 10° C | 87% | 1020.7 hPa | 0 mm | - | 121 W/m² | - |
| 1778316920 | 10° C | 87% | 1020.6 hPa | 0 mm | - | 173 W/m² | - |
| 1778316632 | 10° C | 87% | 1020.6 hPa | 0 mm | - | 107 W/m² | - |
| 1778316344 | 10° C | 87% | 1020.6 hPa | 0 mm | - | 78 W/m² | - |
| 1778316024 | 10.56° C | 86% | 1020.8 hPa | 0 mm | - | 123 W/m² | - |
* Rain latest hour (hover to see other rain measurements)
** Current wind speed in m/s (hover to see current wind gust speed)